Flight Track Log - Related Links

Times and Time Zones

All times are in EDT time to prevent confusion due to time zone crossing. See the EGF4673 flight status page for this flight to view local times or setup timezone preferences in your user account.

Time Position Orientation Groundspeed Altitude Reporting Facility
EDT Latitude Longitude Course Direction KTS MPH feet Rate Location/Type
Thu 11:51:15 AM 43.6587 -79.6008 246° West  Level FlightAware Approximate
Thu 11:52:15 AM 43.5998 -79.4662 275° West  Level FlightAware Approximate
Thu 11:53:40 AM 43.6167 -79.7333 144° Southeast 200 230 5,000  Level Toronto Center
Thu 11:54:40 AM 43.5667 -79.6833 136° Southeast 260 299 6,900 1,000 Climbing Toronto Center
Thu 11:55:40 AM 43.5167 -79.6167 90° East 280 322 7,000 50 Climbing Toronto Center
Thu 11:56:40 AM 43.5167 -79.5000 90° East 300 345 7,000 100 Level Toronto Center
Thu 11:57:40 AM 43.5167 -79.3833 90° East 290 334 7,200 1,350 Climbing Toronto Center
Thu 11:58:40 AM 43.5167 -79.2667 101° East 300 345 9,700 2,150 Climbing Toronto Center
Thu 11:59:40 AM 43.5000 -79.1500 117° Southeast 330 380 11,500 1,550 Climbing Toronto Center
Thu 12:00:40 PM 43.4500 -79.0167 109° East 380 437 12,800 1,650 Climbing Toronto Center
Thu 12:01:40 PM 43.4167 -78.8833 105° East 400 460 14,800 1,850 Climbing Toronto Center
Thu 12:02:40 PM 43.3833 -78.7167 110° East 420 483 16,500 1,682 Climbing Toronto Center
Thu 12:03:52 PM 43.3361 -78.5367 108° East 435 501 18,500 1,636 Climbing Cleveland Center
Thu 12:04:52 PM 43.2956 -78.3697 109° East 457 526 20,100 1,550 Climbing Cleveland Center
Thu 12:05:52 PM 43.2525 -78.1975 108° East 470 541 21,600 1,500 Climbing Cleveland Center
Thu 12:06:52 PM 43.2092 -78.0197 109° East 482 555 23,100 1,500 Climbing Cleveland Center
Thu 12:07:52 PM 43.1633 -77.8394 109° East 488 562 24,600 1,350 Climbing Cleveland Center
Thu 12:08:52 PM 43.1172 -77.6594 109° East 497 572 25,800 1,150 Climbing Cleveland Center
Thu 12:09:52 PM 43.0756 -77.4964 110° East 502 578 26,900 1,150 Climbing Cleveland Center
Thu 12:10:52 PM 43.0267 -77.3142 109° East 502 578 28,100 1,300 Climbing Cleveland Center
Thu 12:11:52 PM 42.9797 -77.1294 110° East 502 578 29,500 1,179 Climbing Cleveland Center
Thu 12:13:40 PM 42.8833 -76.7667 107° East 520 598 31,400 923 Climbing Toronto Center
Thu 12:14:15 PM 42.8669 -76.6928 111° Southeast 516 594 31,700 758 Climbing Boston Center
Thu 12:15:15 PM 42.8097 -76.4878 109° East 516 594 32,600 950 Climbing Boston Center
Thu 12:16:15 PM 42.7619 -76.3036 111° Southeast 522 601 33,600 700 Climbing Boston Center
Thu 12:17:15 PM 42.7078 -76.1164 110° East 522 601 34,000 200 Climbing Boston Center
Thu 12:18:15 PM 42.6556 -75.9214 111° Southeast 528 608 34,000 -650 Level Boston Center
Thu 12:19:15 PM 42.6008 -75.7264 111° Southeast 539 620 32,700 -1,550 Descending Boston Center
Thu 12:20:15 PM 42.5458 -75.5347 110° East 544 626 30,900 -1,900 Descending Boston Center
Thu 12:21:15 PM 42.4947 -75.3433 113° Southeast 544 626 28,900 -2,000 Descending Boston Center
Thu 12:22:15 PM 42.4386 -75.1664 116° Southeast 531 611 26,900 -2,000 Descending Boston Center
Thu 12:23:15 PM 42.3778 -75.0006 117° Southeast 512 589 24,900 -2,000 Descending Boston Center
Thu 12:24:15 PM 42.3186 -74.8436 117° Southeast 504 580 22,900 -1,950 Descending Boston Center
Thu 12:25:15 PM 42.2553 -74.6758 116° Southeast 504 580 21,000 -1,700 Descending Boston Center
Thu 12:26:15 PM 42.2000 -74.5225 116° Southeast 487 560 19,500 -1,000 Descending Boston Center
Thu 12:27:15 PM 42.1464 -74.3750 120° Southeast 446 513 19,000 -250 Descending Boston Center
Thu 12:28:15 PM 42.0761 -74.2133 123° Southeast 446 513 19,000  Level Boston Center
Thu 12:29:15 PM 42.0072 -74.0717 151° Southeast 452 520 19,000  Level Boston Center
Thu 12:30:15 PM 41.9164 -74.0053 168° South 416 479 19,000 -900 Level Boston Center
Thu 12:31:15 PM 41.7981 -73.9717 170° South 397 457 17,200 -2,350 Descending Boston Center
Thu 12:32:15 PM 41.7025 -73.9500 169° South 391 450 14,300 -2,650 Descending Boston Center
Thu 12:33:15 PM 41.5925 -73.9222 170° South 381 438 11,900 -1,968 Descending Boston Center
Thu 12:34:20 PM 41.5000 -73.9000 163° South 312 359 10,200 -1,237 Descending New York TRACON
Thu 12:35:26 PM 41.4167 -73.8667 143° Southeast 275 316 9,200 -762 Descending New York TRACON
Thu 12:36:26 PM 41.3500 -73.8000 151° Southeast 279 321 8,600 -1,000 Descending New York TRACON
Thu 12:37:26 PM 41.2833 -73.7500 143° Southeast 269 310 7,200 -1,350 Descending New York TRACON
Thu 12:38:26 PM 41.2333 -73.7000 153° Southeast 239 275 5,900 -1,100 Descending New York TRACON
Thu 12:39:26 PM 41.1833 -73.6667 153° Southeast 198 228 5,000 -450 Descending New York TRACON
Thu 12:40:26 PM 41.1333 -73.6333 166° South 189 217 5,000 -211 Level New York TRACON
Thu 12:41:20 PM 41.0833 -73.6167 217° Southwest 199 229 4,600 -500 Descending New York TRACON
Thu 12:42:26 PM 41.0500 -73.6500 207° Southwest 186 214 4,000 -286 Descending New York TRACON
Thu 12:43:26 PM 41.0000 -73.6833 217° Southwest 161 185 4,000  Level New York TRACON
Thu 12:44:26 PM 40.9667 -73.7167 217° Southwest 159 183 4,000 -300 Level New York TRACON
Thu 12:45:26 PM 40.9333 -73.7500 217° Southwest 161 185 3,400 -750 Descending New York TRACON
Thu 12:46:26 PM 40.9000 -73.7833 217° Southwest 164 189 2,500 -900 Descending New York TRACON

Login

Don't have an account? Register now (free) for customized features, flight alerts, and more!